This demonstration page uses our WeatherBlox Daily Observations layout. Learn more.

Left ArrowRight Arrow

39.01783, -85.05884

Hourly Observations for January 12, 2020

Temp ( °F °C ) Dew Point ( °F °C ) Humidity (%) Winds ( mph kmh ) Pressure ( in mb ) Visibility ( mi km ) Precip ( " mm )
12:52 am 00:52 Cloudy with Mist and Fog 42 5.6 38 3.3 85 85 WSW 18 30 29.92 1013 6 10 0.00 0.00
1:52 am 01:52 Cloudy 40 4.4 36 2.2 86 86 SW 17 28 30.01 1016 10 16 0.00 0.00
1:59 am 01:59 Cloudy 40 4.4 36 2.2 86 86 WSW 16 26 30.05 1018 10 16 0.00 0.00
2:19 am 02:19 Cloudy 41 5 35 1.7 79 79 W 17 28 30.08 1019 10 16 0.00 0.00
2:52 am 02:52 Cloudy 40 4.4 35 1.7 83 83 W 15 24 30.06 1018 10 16 0.00 0.00
3:52 am 03:52 Cloudy 39 3.9 33 0.6 79 79 W 10 17 30.11 1020 10 16 0.00 0.00
4:52 am 04:52 Cloudy 39 3.9 32 0 76 76 W 15 24 30.16 1021 10 16 0.00 0.00
5:52 am 05:52 Cloudy 38 3.3 33 0.6 83 83 W 12 19 30.20 1023 10 16 0.00 0.00
6:52 am 06:52 Cloudy 38 3.3 32 0 79 79 WSW 8 13 30.24 1024 10 16 0.00 0.00
7:52 am 07:52 Cloudy 38 3.3 31 -0.6 76 76 W 8 13 30.25 1025 10 16 0.00 0.00
8:52 am 08:52 Cloudy 37 2.8 31 -0.6 79 79 W 6 9 30.29 1026 10 16 0.00 0.00
9:52 am 09:52 Cloudy 38 3.3 32 0 79 79 W 7 11 30.32 1027 10 16 0.00 0.00
10:52 am 10:52 Cloudy 38 3.3 32 0 79 79 WNW 5 7 30.35 1028 10 16 0.00 0.00
11:52 am 11:52 Cloudy 38 3.3 33 0.6 83 83 Calm 30.35 1028 10 16 0.00 0.00
12:52 pm 12:52 Cloudy 39 3.9 32 0 76 76 S 6 9 30.31 1027 10 16 0.00 0.00
1:27 pm 13:27 Cloudy 39 3.9 33 0.6 79 79 SSE 7 11 30.33 1027 10 16 0.00 0.00
1:52 pm 13:52 Cloudy 39 3.9 33 0.6 79 79 S 6 9 30.30 1026 10 16 0.00 0.00
2:52 pm 14:52 Cloudy 40 4.4 33 0.6 77 77 S 5 7 30.27 1025 10 16 0.00 0.00
3:52 pm 15:52 Cloudy 40 4.4 34 1.1 79 79 Calm 30.27 1025 10 16 0.00 0.00
4:52 pm 16:52 Cloudy 41 5 34 1.1 76 76 ESE 5 7 30.28 1025 10 16 0.00 0.00
5:52 pm 17:52 Cloudy 41 5 35 1.7 79 79 E 5 7 30.27 1025 10 16 0.00 0.00
6:52 pm 18:52 Cloudy 41 5 35 1.7 79 79 E 3 6 30.27 1025 10 16 0.00 0.00
7:52 pm 19:52 Cloudy 41 5 35 1.7 79 79 E 6 9 30.26 1025 10 16 0.00 0.00
8:52 pm 20:52 Mostly Cloudy 40 4.4 34 1.1 79 79 Calm 30.26 1025 10 16 0.00 0.00
9:52 pm 21:52 Mostly Cloudy 40 4.4 34 1.1 79 79 Calm 30.25 1024 10 16 0.00 0.00
10:52 pm 22:52 Cloudy 41 5 35 1.7 79 79 Calm 30.26 1025 10 16 0.00 0.00
11:52 pm 23:52 Cloudy 39 3.9 35 1.7 86 86 SSW 3 6 30.25 1025 10 16 0.00 0.00

Powered by AerisWeather